Kremmling, CO

11:59 PM MDT on August 20, 2017 (GMT -0600)
Kremmling

Weather History for K20V - January, 2013

Change the Weather History Date:

Saturday, January 5, 2013

  Actual Average Record
Temperature  
Mean Temperature -16 °F -  
Max Temperature -2 °F - 46 °F (2015)
Min Temperature -31 °F - -31 °F (2013)
Degree Days  
Heating Degree Days 82    
Month to date heating degree days  
Cooling Degree Days 0    
Month to date cooling degree days  
Moisture  
Dew Point -27 °F    
Average Humidity 64    
Maximum Humidity 77    
Minimum Humidity 55    
Precipitation  
Precipitation 0.00 in - 0.17 in (2005)
Sea Level Pressure  
Sea Level Pressure 30.40 in    
Wind  
Wind Speed 0 mph (WNW)    
Max Wind Speed 5 mph    
Max Gust Speed -    
T = Trace of Precipitation, MM = Missing Value Source: NWS Daily Summary

Daily Weather History Graph

Daily Weather History Graph

Search for Another Location

Airport or City:

Trip Planner

Search our weather history database for the weather conditions in past years. The results will help you decide how hot, cold, wet, or windy it might be!

Date:

Astronomy

Jan. 05, 2013 Rise Set
Actual Time 7:27 AM MST 4:54 PM MST
Civil Twilight 6:57 AM MST 5:24 PM MST
Nautical Twilight 6:23 AM MST 5:58 PM MST
Astronomical Twilight 5:50 AM MST 6:31 PM MST
Moon 12:37 AM MST (1/5) 11:46 AM MST (1/5)
Length of Visible Light 10h 27m
Length of Day
9h 27m
Last Quarter, 43% of the Moon is Illuminated
Jan 5
Last Quarter
Jan 11
New
Jan 18
First Quarter
Jan 26
Full
Feb 3
Last Quarter

Hourly Weather History & Observations

Time (MST) Temp. Windchill Dew Point Humidity Pressure Visibility Wind Dir Wind Speed Gust Speed Precip Events Conditions
12:16 AM -22.0 °F - -31.0 °F 63% 30.28 in - Calm Calm - N/A   Clear
12:36 AM -23.8 °F - -31.0 °F 69% 30.29 in - Calm Calm - N/A   Clear
12:56 AM -25.6 °F - -32.8 °F 69% 30.29 in - Calm Calm - N/A   Clear
1:16 AM -25.6 °F - -32.8 °F 69% 30.29 in - Calm Calm - N/A   Clear
1:36 AM -25.6 °F - -34.6 °F 63% 30.30 in - Calm Calm - N/A   Clear
1:56 AM -25.6 °F - -32.8 °F 69% 30.30 in - Calm Calm - N/A   Clear
2:16 AM -25.6 °F - -32.8 °F 69% 30.32 in - Calm Calm - N/A   Clear
2:36 AM -25.6 °F - -34.6 °F 63% 30.32 in - Calm Calm - N/A   Clear
2:56 AM -25.6 °F - -34.6 °F 63% 30.32 in - Calm Calm - N/A   Clear
3:16 AM -27.4 °F - -34.6 °F 69% 30.33 in - Calm Calm - N/A   Clear
3:36 AM -25.6 °F - -34.6 °F 63% 30.33 in - Calm Calm - N/A   Clear
3:56 AM -27.4 °F - -36.4 °F 62% 30.34 in - Calm Calm - N/A   Clear
4:15 AM -27.4 °F -41.9 °F -36.4 °F 62% 30.35 in - North 4.6 mph - N/A   Clear
4:56 AM -27.4 °F - -36.4 °F 62% 30.35 in - Calm Calm - N/A   Clear
5:16 AM -27.4 °F - -36.4 °F 62% 30.36 in - Calm Calm - N/A   Clear
5:36 AM -29.2 °F - -38.2 °F 62% 30.36 in - Calm Calm - N/A   Clear
5:56 AM -27.4 °F - -36.4 °F 62% 30.37 in - Calm Calm - N/A   Clear
6:16 AM -27.4 °F - -36.4 °F 62% 30.38 in - Calm Calm - N/A   Clear
6:36 AM -29.2 °F - -38.2 °F 62% 30.38 in - Calm Calm - N/A   Clear
6:56 AM -27.4 °F - -36.4 °F 62% 30.40 in - Calm Calm - N/A   Clear
7:16 AM -29.2 °F - -38.2 °F 62% 30.41 in - Calm Calm - N/A   Clear
7:36 AM -31.0 °F - -40.0 °F 62% 30.41 in - Calm Calm - N/A   Clear
7:56 AM -27.4 °F - -36.4 °F 62% 30.41 in - Calm Calm - N/A   Clear
8:16 AM -27.4 °F - -36.4 °F 62% 30.42 in - Calm Calm - N/A   Clear
8:56 AM -25.6 °F - -34.6 °F 63% 30.42 in - Calm Calm - N/A   Clear
9:16 AM -22.0 °F - -32.8 °F 57% 30.42 in - Calm Calm - N/A   Clear
10:16 AM -18.4 °F - -27.4 °F 63% 30.43 in - Calm Calm - N/A   Clear
10:36 AM -16.6 °F - -27.4 °F 58% 30.43 in - Calm Calm - N/A   Clear
10:55 AM -16.6 °F - -25.6 °F 64% 30.43 in - Calm Calm - N/A   Clear
11:16 AM -14.8 °F - -25.6 °F 58% 30.43 in - Calm Calm - N/A   Clear
11:36 AM -13.0 °F - -22.0 °F 64% 30.42 in - Calm Calm - N/A   Clear
11:56 AM -9.4 °F -18.6 °F -20.2 °F 59% 30.41 in - SW 3.5 mph - N/A   Clear
12:16 PM -9.4 °F - -20.2 °F 59% 30.40 in - Calm Calm - N/A   Clear
12:36 PM -7.6 °F - -18.4 °F 59% 30.39 in - Calm Calm - N/A   Clear
12:56 PM -7.6 °F - -18.4 °F 59% 30.38 in - Calm Calm - N/A   Clear
1:16 PM -5.8 °F - -16.6 °F 60% 30.38 in - Calm Calm - N/A   Clear
1:36 PM -7.6 °F - -18.4 °F 59% 30.38 in - Calm Calm - N/A   Clear
1:56 PM -7.6 °F - -16.6 °F 65% 30.38 in - Calm Calm - N/A   Clear
2:16 PM -5.8 °F - -16.6 °F 60% 30.38 in - Calm Calm - N/A   Clear
2:36 PM -5.8 °F - -16.6 °F 60% 30.39 in - Calm Calm - N/A   Clear
2:56 PM -5.8 °F - -16.6 °F 60% 30.39 in - Calm Calm - N/A   Clear
3:16 PM -2.2 °F - -14.8 °F 55% 30.39 in - Calm Calm - N/A   Clear
3:56 PM -4.0 °F - -14.8 °F 60% 30.40 in - Calm Calm - N/A   Clear
4:15 PM -4.0 °F - -14.8 °F 60% 30.40 in - Calm Calm - N/A   Clear
4:36 PM -5.8 °F - -14.8 °F 65% 30.41 in - Calm Calm - N/A   Clear
4:56 PM -5.8 °F - -14.8 °F 65% 30.41 in - Calm Calm - N/A   Clear
5:16 PM -9.4 °F - -18.4 °F 65% 30.42 in - Calm Calm - N/A   Clear
5:36 PM -9.4 °F - -18.4 °F 65% 30.43 in - Calm Calm - N/A   Clear
5:56 PM -9.4 °F - -16.6 °F 71% 30.44 in - Calm Calm - N/A   Clear
6:16 PM -13.0 °F - -18.4 °F 77% 30.44 in - Calm Calm - N/A   Clear
6:56 PM -13.0 °F - -20.2 °F 70% 30.45 in - Calm Calm - N/A   Clear
7:16 PM -14.8 °F - -20.2 °F 77% 30.46 in - Calm Calm - N/A   Clear
7:36 PM -16.6 °F - -23.8 °F 70% 30.46 in - Calm Calm - N/A   Clear
7:56 PM -16.6 °F - -25.6 °F 64% 30.45 in - Calm Calm - N/A   Clear
8:15 PM -16.6 °F - -25.6 °F 64% 30.46 in - Calm Calm - N/A   Clear
8:36 PM -18.4 °F - -27.4 °F 63% 30.47 in - Calm Calm - N/A   Clear
8:56 PM -20.2 °F - -27.4 °F 69% 30.46 in - Calm Calm - N/A   Clear
9:16 PM -20.2 °F - -27.4 °F 69% 30.47 in - Calm Calm - N/A   Clear
9:36 PM -20.2 °F - -27.4 °F 69% 30.47 in - Calm Calm - N/A   Clear
9:56 PM -20.2 °F - -27.4 °F 69% 30.47 in - Calm Calm - N/A   Clear
10:16 PM -22.0 °F - -31.0 °F 63% 30.47 in - Calm Calm - N/A   Clear
10:36 PM -22.0 °F - -29.2 °F 69% 30.48 in - Calm Calm - N/A   Clear
10:56 PM -22.0 °F - -31.0 °F 63% 30.48 in - Calm Calm - N/A   Clear
11:16 PM -22.0 °F - -29.2 °F 69% 30.47 in - Calm Calm - N/A   Clear
11:36 PM -22.0 °F - -31.0 °F 63% 30.47 in - Calm Calm - N/A   Clear
11:55 PM -23.8 °F - -31.0 °F 69% 30.47 in - Calm Calm - N/A   Clear